Weather History for KYKM - March, 2014

Change the Weather History Date:

Sunday, March 30, 2014

  Actual Average Record
Temperature  
Mean Temperature 44 °F 46 °F  
Max Temperature 59 °F 60 °F 78 °F (2003)
Min Temperature 28 °F 32 °F 18 °F (1954)
Degree Days  
Heating Degree Days 21 19  
Month to date heating degree days 612 657  
Since 1 July heating degree days 5014 5184  
Cooling Degree Days 0 0  
Month to date cooling degree days 0 0  
Year to date cooling degree days 0 0  
Moisture  
Dew Point 26 °F    
Average Humidity 55    
Maximum Humidity 85    
Minimum Humidity 24    
Precipitation  
Precipitation 0.00 in 0.02 in 0.31 in (2012)
Month to date precipitation 0.60 0.61  
Year to date precipitation 2.33 2.53  
Snow  
Snow 0.00 in 0.00 in 0.10 in (1982)
Month to date snowfall 1.7 0.7  
Year to date snowfall 19.9 8.6  
Since 1 July snowfall 19.9 21.6  
Snow Depth 0.00 in    
Sea Level Pressure  
Sea Level Pressure 29.90 in    
Wind  
Wind Speed 6 mph (West)    
Max Wind Speed 21 mph    
Max Gust Speed 28 mph    
Visibility 10 miles    
Events      
T = Trace of Precipitation, MM = Missing Value Source: NWS Daily Summary

Daily Weather History Graph

Daily Weather History Graph

Search for Another Location

Airport or City:

Trip Planner

Search our weather history database for the weather conditions in past years. The results will help you decide how hot, cold, wet, or windy it might be!

Date:

Astronomy

Mar. 30, 2014 Rise Set
Actual Time 6:45 AM PDT 7:28 PM PDT
Civil Twilight 6:14 AM PDT 7:59 PM PDT
Nautical Twilight 5:38 AM PDT 8:35 PM PDT
Astronomical Twilight 5:00 AM PDT 9:13 PM PDT
Moon 6:34 AM PDT (3/30) 7:49 PM PDT (3/30)
Length of Visible Light 13h 44m
Length of Day
12h 43m
New Moon, 0% of the Moon is Illuminated
Mar 30
New Moon
Apr 7
First Quarter
Apr 15
Full
Apr 22
Last Quarter
Apr 28
New

Hourly Weather History & Observations

Time (PDT) Temp. Windchill Dew Point Humidity Pressure Visibility Wind Dir Wind Speed Gust Speed Precip Events Conditions
12:53 AM 39.9 °F 36.7 °F 32.0 °F 73% 29.82 in 10.0 mi WNW 4.6 mph - N/A   Clear
1:53 AM 39.0 °F - 32.0 °F 76% 29.83 in 10.0 mi Calm Calm - N/A   Clear
2:53 AM 30.9 °F 26.2 °F 27.0 °F 85% 29.84 in 10.0 mi West 4.6 mph - N/A   Clear
3:53 AM 30.9 °F 23.5 °F 26.1 °F 82% 29.84 in 10.0 mi West 8.1 mph - N/A   Clear
4:53 AM 28.9 °F 21.9 °F 25.0 °F 85% 29.86 in 10.0 mi NW 6.9 mph - N/A   Clear
5:53 AM 30.9 °F 26.2 °F 27.0 °F 85% 29.87 in 10.0 mi West 4.6 mph - N/A   Clear
6:53 AM 28.9 °F 22.8 °F 25.0 °F 85% 29.88 in 10.0 mi WNW 5.8 mph - N/A   Clear
7:53 AM 33.1 °F 30.0 °F 28.0 °F 82% 29.90 in 10.0 mi West 3.5 mph - N/A   Clear
8:53 AM 39.9 °F - 32.0 °F 73% 29.91 in 10.0 mi Calm Calm - N/A   Clear
9:53 AM 44.1 °F - 33.1 °F 65% 29.91 in 10.0 mi Calm Calm - N/A   Partly Cloudy
10:53 AM 50.0 °F - 35.1 °F 57% 29.91 in 10.0 mi Calm Calm - N/A   Partly Cloudy
11:53 AM 55.9 °F - 21.9 °F 27% 29.89 in 10.0 mi WNW 18.4 mph 25.3 mph N/A   Scattered Clouds
12:53 PM 57.9 °F - 24.1 °F 27% 29.90 in 10.0 mi West 10.4 mph 18.4 mph N/A   Scattered Clouds
1:53 PM 57.9 °F - 23.0 °F 26% 29.90 in 10.0 mi West 15.0 mph 19.6 mph N/A   Scattered Clouds
2:53 PM 57.9 °F - 21.0 °F 24% 29.90 in 10.0 mi West 15.0 mph 23.0 mph N/A   Scattered Clouds
3:53 PM 57.9 °F - 21.9 °F 25% 29.89 in 10.0 mi WSW 10.4 mph 19.6 mph N/A   Scattered Clouds
4:53 PM 57.9 °F - 21.0 °F 24% 29.89 in 10.0 mi WNW 6.9 mph - N/A   Scattered Clouds
5:53 PM 57.9 °F - 21.0 °F 24% 29.90 in 10.0 mi WNW 8.1 mph - N/A   Partly Cloudy
6:53 PM 54.0 °F - 23.0 °F 30% 29.91 in 10.0 mi WNW 9.2 mph - N/A   Clear
7:53 PM 48.9 °F - 26.1 °F 41% 29.94 in 10.0 mi WSW 4.6 mph - N/A   Clear
8:53 PM 48.0 °F - 26.1 °F 42% 29.96 in 10.0 mi Variable 5.8 mph - N/A   Clear
9:53 PM 45.0 °F 41.2 °F 26.1 °F 48% 29.96 in 10.0 mi West 6.9 mph - N/A   Clear
10:53 PM 39.0 °F - 26.1 °F 60% 29.98 in 10.0 mi Calm Calm - N/A   Clear
11:53 PM 35.1 °F - 25.0 °F 67% 29.97 in 10.0 mi Calm Calm - N/A   Clear